Location: Bruderhein
(53.8035°N, 112.9265°W)
Time: 16:21:51
(UTC+00:00)

RS-15 - Pass Details

Date: 31 March 2023
Orbit: 1885 x 2159 km, 64.8° (Epoch: 01 June)

Event Time Altitude Azimuth Distance (km) Brightness Sun altitude
Rises 05:41:51 0° 305° (NW) 5,678 11.5 -27.4°
Reaches altitude 10° 05:45:25 10° 308° (NW) 4,657 10.9 -27.7°
Maximum altitude 05:57:36 66° 31° (NNE) 2,229 8.3 -28.6°
Enters shadow 06:04:30 29° 105° (ESE) 3,194 8.8 -29.0°
